This is the latest recevied weather packets stored in our database for station/object KD7CIH. If no packets are shown the sender has not sent any weather packets the latest 10 day(s).
| Time | Temp. | Humidity | Pressure | Rain* | Wind** | Luminosity | Snow |
|---|---|---|---|---|---|---|---|
| 1787951766 | 27.78° C | 26% | 1016 hPa | 0 mm | - | - | - |
| 1787951467 | 27.78° C | 27% | 1016.1 hPa | 0 mm | - | - | - |
| 1787951165 | 27.22° C | 27% | 1016 hPa | 0 mm | - | - | - |
| 1787950992 | 27.22° C | 27% | 1016.1 hPa | 0 mm | - | - | - |
| 1787950566 | 27.22° C | 27% | 1016.3 hPa | 0 mm | - | - | - |
| 1787950267 | 27.22° C | 26% | 1016.3 hPa | 0 mm | - | - | - |
| 1787949968 | 27.22° C | 27% | 1016.4 hPa | 0 mm | - | - | - |
| 1787949665 | 26.67° C | 27% | 1016.6 hPa | 0 mm | - | - | - |
| 1787949367 | 26.67° C | 26% | 1016.8 hPa | 0 mm | - | - | - |
| 1787949065 | 27.22° C | 26% | 1016.6 hPa | 0 mm | - | - | - |
| 1787948765 | 27.22° C | 25% | 1016.6 hPa | 0 mm | - | - | - |
| 1787948465 | 27.78° C | 26% | 1016.6 hPa | 0 mm | - | - | - |
| 1787948168 | 27.78° C | 25% | 1016.6 hPa | 0 mm | - | - | - |
| 1787947994 | 27.78° C | 24% | 1016.8 hPa | 0 mm | - | - | - |
| 1787947566 | 28.33° C | 24% | 1016.8 hPa | 0 mm | - | - | - |
| 1787947268 | 27.78° C | 26% | 1016.8 hPa | 0 mm | - | - | - |
| 1787946965 | 27.78° C | 24% | 1016.9 hPa | 0 mm | - | - | - |
| 1787946792 | 27.78° C | 24% | 1017 hPa | 0 mm | - | - | - |
| 1787946367 | 27.78° C | 26% | 1017 hPa | 0 mm | - | - | - |
| 1787946068 | 27.22° C | 27% | 1017.1 hPa | 0 mm | - | - | - |
| 1787945768 | 27.22° C | 27% | 1017.2 hPa | 0 mm | - | - | - |
| 1787945596 | 26.67° C | 28% | 1017.5 hPa | 0 mm | - | - | - |
| 1787945293 | 26.67° C | 29% | 1017.2 hPa | 0 mm | - | - | - |
| 1787944865 | 26.11° C | 30% | 1017.5 hPa | 0 mm | - | - | - |
| 1787944568 | 25.56° C | 30% | 1017.6 hPa | 0 mm | - | - | - |
* Rain latest hour (hover to see other rain measurements)
** Current wind speed in m/s (hover to see current wind gust speed)